Munising, MI

11:19 AM EST on December 12, 2017 (GMT -0500)
Munising

Weather History for KP53 - October, 2012

Change the Weather History Date:

Tuesday, October 9, 2012

  Actual Average (KISQ) Record (KISQ)
Temperature  
Mean Temperature 47 °F -  
Max Temperature 55 °F 54 °F 69 °F (1960)
Min Temperature 39 °F 37 °F 24 °F (1989)
Degree Days  
Heating Degree Days 18    
Moisture  
Dew Point 38 °F    
Average Humidity 67    
Maximum Humidity 90    
Minimum Humidity 47    
Precipitation  
Precipitation 0.46 in - - ()
Sea Level Pressure  
Sea Level Pressure 29.69 in    
Wind  
Wind Speed 11 mph (SSW)    
Max Wind Speed 20 mph    
Max Gust Speed 31 mph    
Averages and records for this station are not official NWS values.
T = Trace of Precipitation, MM = Missing Value Source: NWS Daily Summary

Daily Weather History Graph

Daily Weather History Graph

Search for Another Location

Airport or City:

Trip Planner

Search our weather history database for the weather conditions in past years. The results will help you decide how hot, cold, wet, or windy it might be!

Date:

Astronomy

Oct. 09, 2012 Rise Set
Actual Time 7:56 AM EDT 7:10 PM EDT
Civil Twilight 7:26 AM EDT 7:40 PM EDT
Nautical Twilight 6:51 AM EDT 8:15 PM EDT
Astronomical Twilight 6:16 AM EDT 8:50 PM EDT
Moon 1:12 AM EDT (10/9) 3:55 PM EDT (10/9)
Length of Visible Light 12h 14m
Length of Day
11h 13m
Last Quarter, 37% of the Moon is Illuminated
Oct 9
Last Quarter
Oct 15
New
Oct 21
First Quarter
Oct 29
Full
Nov 6
Last Quarter

Hourly Weather History & Observations

Time (EDT) Temp. Windchill Dew Point Humidity Pressure Visibility Wind Dir Wind Speed Gust Speed Precip Events Conditions
12:56 AM 54.0 °F - 35.1 °F 49% 29.69 in - SSW 19.6 mph 31.1 mph N/A   Unknown
1:56 AM 54.0 °F - 35.1 °F 49% 29.68 in - South 16.1 mph 28.8 mph N/A   Unknown
2:56 AM 54.0 °F - 35.1 °F 49% 29.68 in - South 15.0 mph 24.2 mph N/A   Unknown
3:56 AM 54.0 °F - 35.1 °F 49% 29.67 in - South 12.7 mph 20.7 mph N/A   Unknown
4:56 AM 54.0 °F - 34.0 °F 47% 29.67 in - South 10.4 mph 20.7 mph N/A   Unknown
5:56 AM 54.0 °F - 34.0 °F 47% 29.68 in - South 10.4 mph 17.3 mph N/A   Unknown
6:56 AM 53.1 °F - 35.1 °F 50% 29.69 in - South 6.9 mph - N/A   Unknown
7:56 AM 51.1 °F - 37.0 °F 59% 29.70 in - SSW 6.9 mph - N/A   Unknown
8:56 AM 51.1 °F - 37.0 °F 59% 29.73 in - SSW 4.6 mph - N/A   Unknown
9:56 AM 51.1 °F - 37.0 °F 59% 29.74 in - South 6.9 mph - N/A   Unknown
10:56 AM 52.0 °F - 37.9 °F 59% 29.73 in - Variable 6.9 mph - N/A   Unknown
11:56 AM 54.0 °F - 37.9 °F 55% 29.72 in - Variable 5.8 mph - N/A   Unknown
12:56 PM 55.9 °F - 39.0 °F 53% 29.70 in - South 10.4 mph - N/A   Unknown
1:56 PM 54.0 °F - 41.0 °F 62% 29.67 in - SSW 8.1 mph 18.4 mph N/A   Unknown
2:56 PM 50.0 °F - 44.1 °F 80% 29.67 in - SSW 5.8 mph 18.4 mph 0.04 in   Unknown
3:56 PM 48.9 °F - 46.0 °F 90% 29.66 in - Variable 4.6 mph - 0.13 in   Unknown
4:56 PM 48.9 °F - 45.0 °F 86% 29.64 in - SSW 4.6 mph - 0.10 in   Unknown
5:56 PM 46.9 °F - 43.0 °F 86% 29.64 in - WSW 4.6 mph - 0.06 in   Unknown
6:56 PM 44.1 °F 38.1 °F 39.0 °F 82% 29.68 in - WNW 11.5 mph 25.3 mph 0.05 in   Unknown
7:56 PM 41.0 °F 37.1 °F 36.0 °F 82% 29.70 in - Variable 5.8 mph - 0.07 in   Unknown
8:56 PM 39.9 °F 35.1 °F 36.0 °F 86% 29.70 in - SSW 6.9 mph - 0.01 in   Unknown
9:56 PM 39.9 °F 33.9 °F 36.0 °F 86% 29.70 in - SSW 9.2 mph - N/A   Unknown
10:56 PM 39.9 °F 34.5 °F 36.0 °F 86% 29.70 in - SSW 8.1 mph - N/A   Unknown
11:56 PM 39.0 °F 34.0 °F 35.1 °F 86% 29.70 in - SW 6.9 mph - N/A   Unknown